Theta_e
343 344 346 346 345 346 345 343 342 341 341 340 339 339 340 340 340 341 341 338 335 333 334 335 336 336 336 336 335 336 335 335 335 335 336 335 334 334 334 334 334 334 334 334 334 333 333 333 334 335 336 336 335 335 334 334 335 335 335 334 333 332 333 333 332 331 331 331 331 331 331 331 331 331 330 330 330 329 329 329 330 330 329 329 329
344 346 346 345 346 345 344 343 342 341 341 340 339 339 339 339 340 341 340 336 334 333 334 335 336 336 336 335 334 334 334 334 335 335 335 334 333 334 334 335 334 334 335 335 334 333 333 333 334 335 336 335 335 335 334 335 335 335 335 334 333 332 332 332 332 331 332 331 330 330 330 330 330 330 330 330 329 330 329 329 330 330 329 329 329
346 346 344 344 345 345 343 342 341 341 341 341 340 339 339 340 340 341 338 335 335 334 333 335 335 336 336 335 334 334 333 334 335 335 335 334 334 334 335 335 334 335 336 335 335 334 334 334 335 335 336 335 334 335 334 334 335 334 335 334 333 333 332 332 332 332 332 331 330 331 330 330 329 329 330 330 329 329 330 329 329 329 328 328 328
345 346 344 343 344 343 342 341 341 340 340 341 341 339 339 340 340 340 338 335 335 334 332 335 336 335 336 335 334 334 333 335 336 334 334 333 334 334 334 335 335 336 336 334 335 334 333 334 335 334 335 335 334 334 334 334 335 334 334 334 333 334 334 333 333 332 331 330 331 332 330 330 331 329 328 329 329 329 329 329 329 328 328 328 328
343 346 345 345 343 342 342 342 341 340 339 341 341 340 339 340 340 339 338 336 335 333 333 335 336 335 335 335 335 334 334 336 336 334 334 333 334 334 334 335 335 336 336 335 335 334 334 335 335 334 334 335 335 335 334 334 334 333 333 333 333 333 334 333 333 331 330 330 331 332 331 332 332 329 328 329 329 329 330 329 329 328 328 328 328
341 344 343 345 340 338 339 340 340 339 339 341 340 339 339 339 339 339 338 336 334 333 333 336 335 334 335 335 334 334 334 336 335 334 334 334 334 334 334 335 335 335 335 336 335 334 335 336 335 334 334 335 336 335 334 334 333 334 334 333 333 333 332 333 333 331 331 331 330 330 332 333 331 328 329 329 328 329 329 329 329 328 328 327 328
339 341 342 342 337 335 337 338 339 338 339 341 340 339 339 339 339 338 337 335 334 333 334 335 333 333 335 334 333 334 333 334 334 333 334 334 334 334 335 335 335 335 335 335 335 335 336 337 336 335 334 335 335 334 334 334 334 334 334 333 333 333 332 332 332 331 331 331 330 330 330 329 329 328 329 329 329 330 329 329 329 329 328 327 328
340 343 344 341 338 336 336 336 336 336 338 340 339 339 339 339 339 338 337 335 335 333 333 333 333 333 334 334 333 333 333 333 333 333 335 335 335 335 336 336 335 335 334 334 335 335 336 336 336 335 335 334 334 334 334 334 334 334 333 333 333 332 332 332 331 331 331 331 331 331 330 328 328 329 328 328 329 330 329 329 328 329 328 328 328
341 344 346 343 338 337 337 336 334 335 337 339 339 338 338 339 338 337 336 336 335 334 332 333 333 333 335 334 333 333 334 333 333 333 334 335 335 336 336 336 336 335 334 334 334 334 335 335 336 336 335 334 333 334 334 333 333 333 333 332 332 332 332 332 332 332 331 331 331 331 331 329 329 329 328 327 328 329 330 328 327 327 327 327 327
339 344 346 342 337 338 338 336 334 333 335 338 339 338 339 339 338 337 336 336 336 335 333 333 333 333 334 334 334 334 334 333 333 333 333 335 335 336 336 336 336 334 333 334 334 334 334 335 335 335 335 334 334 334 333 333 333 333 332 332 332 332 332 332 332 332 332 331 331 331 332 331 330 329 329 328 327 328 329 327 326 327 327 327 326
338 341 343 338 335 337 336 335 334 333 334 338 338 336 337 337 337 338 337 336 336 335 334 333 332 333 334 334 334 335 335 333 333 333 333 335 335 336 336 336 336 334 334 335 334 334 334 335 335 334 334 334 334 333 332 332 332 333 332 332 332 332 332 332 331 331 331 331 331 331 331 331 330 330 330 329 328 327 328 327 326 327 326 326 326
338 339 340 338 337 336 334 334 333 333 334 335 333 330 331 334 337 337 336 336 336 335 334 332 332 333 334 334 334 334 335 334 333 333 334 334 334 336 337 336 336 335 335 334 334 334 334 334 334 333 333 333 332 332 332 331 332 333 333 333 333 333 332 332 331 330 330 331 331 330 330 331 331 330 330 329 328 328 327 327 326 327 326 326 326
337 338 339 340 339 335 333 335 334 334 334 331 329 329 329 332 337 337 336 337 336 334 334 332 332 334 335 334 334 334 335 334 333 334 334 334 334 336 336 335 335 334 334 334 333 333 333 333 333 333 333 332 332 332 331 331 332 332 333 333 333 333 332 332 331 330 330 330 331 330 331 332 331 330 329 328 328 328 327 326 326 326 326 326 326
333 333 334 336 336 332 331 334 333 332 331 327 327 329 330 332 336 337 337 337 335 333 333 332 332 334 335 334 333 333 334 334 333 334 335 334 335 336 336 335 335 334 334 334 333 333 333 333 333 332 332 332 332 332 332 332 332 333 333 333 333 332 332 332 332 332 331 330 331 331 331 331 331 330 329 328 328 327 327 326 326 326 326 325 326
331 330 331 331 331 329 329 330 329 329 327 325 326 328 330 333 336 337 337 337 335 333 332 333 333 335 335 334 333 332 333 334 334 334 335 334 335 335 335 334 334 334 333 333 333 332 332 332 332 331 331 331 332 332 332 332 332 333 334 333 332 332 332 332 332 332 332 331 331 330 330 330 330 330 330 330 329 328 327 327 326 326 325 324 324
330 330 330 329 328 328 328 328 327 327 326 326 328 329 330 333 334 336 337 337 336 334 333 333 334 334 334 334 333 332 332 333 333 334 335 335 335 334 334 333 333 332 332 332 332 331 331 331 330 330 331 331 331 331 331 332 333 333 333 333 332 332 332 332 332 332 332 332 331 330 330 329 329 330 331 331 329 328 327 327 326 325 324 324 324
330 329 328 329 328 328 329 329 328 327 327 328 330 329 329 331 333 334 336 337 337 335 334 333 333 333 333 333 333 333 332 332 332 334 335 335 334 334 333 333 332 332 332 332 331 330 330 330 329 330 330 330 330 330 330 331 332 333 333 333 332 332 332 332 332 332 332 332 331 330 331 330 329 330 330 331 330 328 327 327 327 325 323 323 323
330 328 327 328 327 327 327 328 328 328 328 328 329 329 329 330 332 333 333 332 333 334 334 333 332 332 333 333 333 333 333 333 332 334 335 334 333 333 333 332 332 332 332 331 331 330 330 329 329 330 330 330 329 329 329 329 329 330 331 332 332 332 332 332 332 331 331 332 331 331 331 331 331 330 329 330 330 328 328 327 328 326 323 321 320
329 329 328 328 327 327 327 327 328 329 329 328 328 329 330 331 331 330 329 328 329 332 333 334 333 332 332 333 333 333 332 333 334 334 334 333 332 333 332 332 332 332 331 330 330 330 329 329 329 329 329 330 329 328 329 329 328 329 331 331 331 332 332 332 332 331 331 331 331 331 331 331 331 331 329 330 330 328 328 328 329 327 323 322 318
327 327 326 325 324 325 326 326 328 329 328 328 328 328 330 330 328 328 329 329 329 330 331 333 333 332 332 332 332 332 331 332 333 333 333 332 332 332 331 331 331 331 330 330 330 329 329 329 329 329 329 328 328 327 328 328 327 329 330 330 331 331 331 331 332 331 330 330 331 331 332 331 331 330 329 329 330 329 329 329 329 327 324 324 320
325 324 324 323 321 321 321 323 325 327 327 327 328 328 328 329 328 328 329 329 329 329 330 332 333 333 333 332 331 331 331 331 332 332 331 331 332 331 330 330 330 330 330 329 329 328 329 329 328 328 328 328 327 327 327 327 327 328 328 329 330 330 330 330 330 331 330 330 330 330 331 331 331 330 328 328 329 328 328 328 327 325 325 324 319
321 321 320 320 319 318 318 319 321 325 327 326 326 327 327 328 329 329 329 328 328 328 328 329 332 333 333 332 331 331 330 330 331 330 330 332 331 330 330 330 330 330 329 329 328 328 328 328 328 327 327 326 326 325 326 326 327 327 326 328 329 329 329 328 329 330 329 329 330 330 330 331 330 329 327 327 328 327 326 326 326 325 324 324 320
317 317 317 316 315 315 316 317 318 320 323 324 324 325 325 327 328 328 329 328 329 329 328 329 332 333 333 332 331 331 330 330 329 329 331 332 331 329 330 330 329 329 328 328 327 327 327 327 327 326 326 325 325 324 325 326 326 325 326 327 327 326 327 327 327 328 328 328 329 329 330 330 330 328 328 327 327 327 326 325 325 325 324 324 323
314 313 313 313 313 313 314 314 316 317 320 321 321 321 323 325 327 328 328 329 330 331 329 329 332 333 331 331 332 331 330 329 329 330 332 331 330 330 329 329 328 327 327 327 326 325 326 326 325 325 324 323 324 324 325 325 325 324 325 325 325 325 325 325 326 325 325 327 329 329 329 329 330 329 328 327 327 328 327 326 326 326 324 324 324
312 311 311 311 311 311 312 312 313 314 316 317 317 317 319 323 325 327 328 328 330 331 331 330 331 331 329 330 332 331 331 331 331 331 331 331 331 329 328 327 326 326 327 327 326 325 325 325 323 323 323 322 322 322 324 324 323 324 325 324 324 324 324 324 324 324 325 326 328 329 328 328 329 329 328 328 328 327 328 328 327 326 324 324 323
310 309 309 309 309 309 310 310 311 312 313 314 315 315 316 319 322 324 326 327 328 330 331 330 329 328 328 330 331 330 330 330 330 330 330 331 330 329 327 326 325 326 327 327 326 325 324 324 323 322 322 321 320 320 322 322 322 323 324 323 323 323 323 323 322 323 325 325 326 327 328 327 328 328 328 327 327 327 328 328 327 326 324 323 322
308 308 307 307 308 308 308 308 309 309 311 312 312 313 314 315 318 321 323 325 327 327 327 327 327 326 327 329 330 330 329 328 328 329 330 330 330 328 327 326 325 326 326 326 325 324 324 324 323 322 321 320 319 319 321 322 322 323 323 322 322 323 322 322 321 322 324 324 324 325 326 327 327 327 327 327 326 326 327 327 325 324 322 321 319
307 307 306 306 306 307 307 307 308 308 309 310 310 311 312 312 314 317 320 323 327 327 325 326 327 326 326 328 329 329 328 327 328 328 329 329 329 329 327 326 326 325 324 324 324 323 322 322 321 320 320 319 318 319 321 321 322 322 322 322 322 322 321 321 321 322 322 322 322 322 325 327 327 326 327 327 326 325 325 325 323 322 322 320 317
305 305 305 305 305 306 306 306 307 307 307 308 309 309 310 310 312 314 316 321 326 328 326 326 326 326 326 327 327 328 327 327 328 328 328 329 329 328 327 326 326 324 323 323 322 321 321 321 319 319 318 318 318 318 320 320 321 322 322 321 321 321 321 321 321 321 321 322 322 321 324 327 327 326 327 326 325 325 324 324 323 322 321 319 316
304 304 304 304 305 305 306 305 306 306 306 307 307 307 307 308 309 311 313 317 322 326 326 326 326 325 325 326 326 327 326 326 327 327 327 328 328 327 327 326 324 323 322 321 321 321 320 319 318 318 317 317 317 318 319 320 321 321 321 320 320 320 320 320 320 321 321 321 322 321 323 326 327 327 327 326 325 324 323 322 322 321 320 318 317
304 303 303 303 304 304 305 305 305 305 305 305 305 306 306 306 307 308 310 312 317 320 322 325 326 326 325 326 326 326 326 325 326 326 326 327 327 326 324 323 322 321 321 320 320 320 320 319 318 317 317 317 317 316 318 319 319 320 320 319 319 318 318 319 319 320 321 321 320 319 320 324 327 327 326 326 325 324 323 322 321 321 320 319 319
303 302 302 302 302 303 303 304 304 304 304 304 304 304 304 304 305 306 308 310 312 313 315 319 323 325 326 326 326 326 325 325 325 325 325 326 326 324 323 322 321 320 320 320 321 321 320 320 319 318 317 316 316 315 316 318 318 319 319 319 318 318 318 318 319 320 320 319 318 317 317 319 322 324 324 325 325 325 324 323 322 321 321 321 320
303 302 302 301 301 302 302 302 303 303 303 303 303 303 303 303 303 304 306 308 308 308 309 313 317 321 324 325 325 325 324 324 324 324 324 324 323 322 322 321 320 320 320 320 320 320 319 318 318 317 316 315 314 314 315 316 318 318 318 318 319 318 317 318 319 320 319 318 317 317 317 316 317 319 319 320 321 321 321 321 321 320 319 319 320
303 302 302 302 301 301 301 301 301 301 302 302 302 302 302 302 302 302 304 306 307 306 306 308 311 314 317 321 323 324 323 323 323 323 323 323 323 322 321 321 320 320 320 319 318 317 316 315 314 314 313 312 312 312 313 314 316 316 315 316 319 320 319 319 320 320 320 319 319 319 319 318 318 318 318 318 318 316 317 319 319 318 318 318 318
301 302 302 302 302 301 301 301 300 300 300 301 301 301 301 301 301 301 301 303 305 306 304 304 307 309 311 314 318 320 321 321 322 323 323 322 322 321 320 320 319 319 318 317 315 314 313 313 312 312 312 311 311 312 312 312 313 313 313 315 319 321 320 320 320 319 320 320 319 320 320 319 319 319 318 319 318 317 318 321 322 321 321 320 319
301 301 301 302 302 301 300 300 300 300 300 300 300 301 301 301 301 301 301 301 302 304 304 303 304 305 307 309 311 314 316 318 318 320 320 320 320 319 318 318 318 317 316 315 314 313 313 312 312 312 312 311 311 312 313 314 314 314 315 317 319 320 320 321 321 321 322 321 320 320 321 320 320 319 319 319 319 319 319 320 320 321 322 322 321
300 300 300 300 300 300 300 300 300 299 299 299 299 300 300 300 300 301 301 301 301 301 302 303 303 303 305 306 307 309 312 314 315 315 315 315 316 316 316 317 317 315 314 314 313 312 311 311 312 312 311 310 309 310 312 314 316 317 317 318 319 319 320 321 320 320 321 322 321 320 320 319 319 318 318 318 319 320 320 320 319 320 320 321 321
300 300 299 299 299 299 299 299 299 299 299 299 299 299 299 300 300 300 301 301 301 301 301 302 302 303 304 305 305 306 308 310 311 312 312 313 314 314 315 315 315 314 312 312 311 310 309 309 309 309 308 308 307 307 309 312 315 317 317 316 315 315 316 317 317 317 318 318 317 316 316 316 315 314 314 314 316 317 317 316 316 316 316 316 317
300 300 299 299 299 299 298 298 298 298 299 299 299 299 299 299 300 300 301 301 301 301 301 301 301 302 303 304 304 305 306 307 308 308 309 310 311 312 313 313 313 313 311 311 311 310 309 309 308 307 306 305 304 303 305 308 310 312 313 314 313 311 310 311 313 314 314 314 313 312 312 312 311 311 310 311 311 312 311 311 311 310 310 310 309
299 299 299 299 299 299 298 298 298 298 299 299 299 299 299 299 300 300 300 301 301 302 302 302 301 301 301 302 303 303 304 305 306 307 307 308 308 309 310 310 311 311 310 309 309 309 307 306 305 304 302 301 300 300 300 302 303 303 305 308 309 306 305 306 309 311 311 311 309 308 308 308 308 308 308 308 308 308 308 307 306 305 304 303 303
299 299 299 299 299 299 299 299 299 299 299 299 299 299 299 299 300 300 300 300 301 302 302 302 302 302 302 302 302 303 303 304 304 305 305 306 307 307 307 307 307 307 307 306 306 306 305 304 303 301 301 301 300 299 299 299 299 298 299 300 301 300 299 303 306 307 307 306 305 305 304 304 304 304 304 303 302 302 301 300 299 299 298 298 297
300 300 299 299 299 299 299 299 299 299 298 298 299 299 299 299 299 300 300 300 301 301 302 302 302 302 302 302 303 303 304 304 304 303 303 303 304 304 304 305 305 305 306 306 306 306 306 305 303 303 302 303 302 301 299 299 298 298 298 298 298 297 297 299 302 303 303 303 302 301 301 300 300 299 299 298 298 298 298 298 298 299 299 299 299
300 300 300 300 299 299 299 299 299 299 299 299 298 298 298 299 300 299 299 299 300 301 301 302 302 302 302 302 302 303 303 304 304 304 303 303 303 304 304 304 305 306 307 307 307 306 306 304 303 302 302 303 303 302 301 300 299 299 298 298 298 298 298 298 299 300 301 300 300 299 298 297 297 298 299 300 300 301 302 302 302 303 303 303 303
301 300 300 300 300 300 299 299 299 300 300 300 299 299 298 298 299 298 298 298 299 300 301 301 301 301 301 301 301 302 303 303 303 304 304 304 304 304 304 305 305 306 306 306 307 307 306 304 302 301 301 302 303 303 301 301 300 299 299 299 299 300 300 300 300 300 300 299 298 297 298 299 300 301 302 303 303 303 303 303 303 303 303 304 305
300 300 300 300 300 300 300 300 300 300 300 300 300 300 299 298 298 298 298 298 298 299 299 300 300 300 300 300 300 300 301 302 302 303 303 304 304 304 304 304 304 305 305 305 306 306 306 305 303 302 301 301 302 303 302 301 300 299 299 299 299 300 300 300 300 300 299 298 297 298 300 302 303 303 303 303 303 303 302 302 302 302 302 302 303
300 300 300 300 299 299 300 300 300 300 300 300 300 300 300 299 299 299 299 299 299 299 299 299 299 300 300 299 299 298 298 299 300 300 301 301 302 303 304 304 304 304 304 304 304 304 305 305 303 302 301 300 301 302 302 300 299 299 299 299 299 299 299 299 299 298 298 298 299 301 302 303 303 302 302 302 302 301 301 301 301 301 301 301 302
300 299 299 300 299 299 300 300 300 300 300 300 300 300 300 301 300 300 300 300 300 300 299 299 300 300 300 300 300 299 298 298 298 298 298 298 299 300 302 303 303 304 304 304 303 303 302 302 302 301 301 301 301 301 300 299 299 299 299 298 298 298 298 297 297 298 299 301 301 302 302 302 302 301 301 301 301 301 301 301 300 301 301 301 301
300 300 300 300 299 300 300 300 300 300 299 300 300 300 300 301 301 301 300 300 299 300 300 300 300 301 301 301 301 301 300 298 298 298 298 297 297 298 299 300 301 301 302 303 304 302 301 301 301 301 300 300 299 299 298 298 298 298 298 298 298 298 297 297 298 299 300 301 301 301 301 301 301 301 300 301 301 300 300 301 300 301 301 301 300
300 300 300 300 299 299 300 300 300 300 299 299 300 300 300 300 300 300 301 300 299 299 299 300 300 300 301 301 302 302 301 300 299 298 298 298 297 297 297 298 298 298 299 300 302 301 299 299 300 299 299 299 298 298 298 298 298 298 298 298 298 297 297 298 299 300 300 301 301 301 301 300 300 300 300 300 300 300 300 300 300 300 300 300 299
300 300 300 300 300 300 299 299 299 299 299 299 299 299 300 300 299 300 300 300 300 299 299 300 300 300 300 301 301 301 301 301 300 299 298 297 297 297 297 297 297 297 297 298 298 298 297 297 297 298 298 298 298 298 298 298 298 298 298 298 298 298 298 299 300 300 300 300 300 300 300 300 300 300 300 299 299 299 299 299 299 299 298 298 298
300 300 300 300 300 300 300 299 299 299 299 299 299 299 299 299 299 299 299 299 299 299 299 299 300 300 300 300 300 301 301 301 300 299 299 298 297 297 297 297 296 296 296 296 297 296 296 296 296 297 297 298 298 298 298 298 298 298 298 298 298 299 300 300 300 300 300 300 300 300 300 300 299 299 298 298 298 298 297 297 297 297 296 296 296
Wind_Speed
9 15 20 23 25 27 28 27 26 24 24 22 22 24 24 24 24 25 26 21 16 18 25 28 24 25 26 24 24 23 22 23 22 21 22 22 21 20 19 18 17 15 15 15 13 13 13 13 14 15 14 13 13 11 10 11 12 12 11 11 12 14 16 17 18 21 22 18 15 14 12 10 10 11 11 12 13 13 14 17 16 15 16 14 13
8 11 15 20 24 27 29 27 27 25 25 25 24 26 26 26 25 25 25 19 14 19 26 25 19 18 19 22 25 22 21 23 22 22 22 21 21 21 20 19 18 16 14 14 12 11 12 13 17 16 14 14 13 11 11 13 13 13 13 12 11 14 16 17 18 17 16 15 14 11 8 8 8 9 10 11 13 13 13 16 16 16 16 14 13
9 9 10 16 22 26 28 28 29 27 27 28 26 27 27 27 26 24 25 21 17 21 22 17 15 14 13 16 22 23 21 22 20 20 20 18 19 20 19 19 18 16 15 14 13 12 12 15 18 17 15 15 14 12 13 13 13 12 14 14 14 15 15 16 16 11 12 17 14 7 3 4 5 5 7 9 11 11 12 14 15 15 14 12 12
11 9 8 13 19 24 26 27 29 28 28 28 27 28 26 26 25 23 25 22 20 23 17 14 18 18 16 15 16 19 21 21 18 19 20 17 17 19 19 19 18 16 16 15 15 15 16 18 17 17 16 14 14 14 14 14 13 12 13 14 15 17 17 16 13 11 15 17 9 3 2 3 2 3 5 6 9 10 10 13 14 14 14 12 11
13 12 10 11 15 21 25 27 27 28 28 27 28 29 26 26 24 23 25 21 21 22 16 16 21 19 20 18 14 13 16 19 20 20 20 17 17 19 19 18 17 17 18 18 18 16 16 17 15 16 16 14 14 14 14 14 14 13 13 14 15 16 17 16 12 13 18 15 8 5 4 1 2 5 6 4 6 8 8 11 13 13 13 12 12
14 14 13 13 15 19 22 26 28 27 25 26 28 30 28 28 25 23 24 22 21 21 17 18 21 19 21 22 17 14 14 17 19 20 20 19 19 19 18 17 16 17 19 19 18 16 16 15 14 15 17 15 14 14 14 13 13 14 14 14 14 14 16 16 14 15 15 12 9 8 5 4 8 10 5 2 3 6 7 9 11 12 12 12 13
9 9 8 9 11 15 19 27 30 25 24 26 29 30 28 28 27 24 24 22 22 22 19 21 22 20 20 21 17 15 17 21 21 21 21 20 19 19 18 16 15 17 17 16 16 15 17 16 14 16 17 16 14 13 14 13 13 14 14 14 14 13 15 17 16 15 14 11 9 7 4 8 18 14 6 4 3 3 6 8 10 11 12 12 12
8 9 10 8 6 9 15 22 22 23 26 28 29 30 28 28 28 27 26 24 22 21 21 23 26 26 24 23 19 16 22 26 23 23 22 20 19 18 17 15 14 15 14 15 16 15 17 17 16 15 15 15 15 14 13 13 14 15 14 13 13 12 13 16 18 16 15 13 10 8 5 12 18 12 11 13 5 2 5 5 8 10 11 12 12
9 10 11 10 11 13 17 15 12 19 24 24 27 29 27 28 29 29 28 25 24 23 25 26 28 29 26 25 22 17 20 22 21 22 23 22 20 19 17 16 15 14 13 16 17 16 17 17 17 16 13 14 16 15 14 14 13 14 15 14 13 13 13 15 16 16 15 14 13 11 10 13 13 10 14 16 8 5 4 3 7 8 7 10 12
8 10 10 11 17 21 21 16 11 16 16 16 23 27 27 27 27 29 30 27 27 28 29 29 29 28 26 24 23 19 18 19 20 21 23 22 20 19 18 17 17 16 16 17 16 14 15 16 16 16 14 14 15 15 15 14 13 13 15 15 14 13 14 14 15 14 13 14 15 14 14 14 12 9 12 13 10 8 5 5 10 10 7 9 12
6 7 6 6 10 11 10 7 7 10 9 8 14 19 22 23 24 27 30 29 29 29 29 29 28 27 26 26 25 22 20 22 22 22 22 21 20 19 19 19 19 19 18 18 16 15 15 15 14 14 13 13 13 13 14 13 13 14 15 15 15 13 13 14 14 15 14 13 15 16 17 17 15 12 14 16 13 9 7 7 10 12 11 13 14
5 4 4 5 7 6 6 5 5 8 9 10 12 11 11 17 22 25 27 27 28 28 28 28 26 26 27 28 28 25 23 24 25 24 23 22 21 20 19 20 20 19 20 18 17 16 15 15 14 14 14 13 12 13 14 13 13 14 15 15 14 12 13 14 14 15 15 14 14 15 16 17 15 15 18 19 17 17 15 10 10 14 10 11 16
7 7 7 7 6 6 7 6 6 8 12 16 19 17 14 18 23 24 25 27 27 28 28 28 27 27 28 30 30 28 25 25 26 25 23 23 23 21 20 21 21 20 20 19 18 16 16 16 14 14 16 13 11 13 14 13 13 13 15 15 14 13 12 13 14 14 15 14 14 15 15 14 13 13 17 18 17 22 22 13 13 16 11 12 16
7 8 7 7 7 8 9 7 6 10 14 18 19 22 24 27 27 25 26 28 27 28 29 30 30 29 31 32 32 30 27 25 26 25 23 23 23 22 21 23 23 21 20 19 18 18 17 16 15 14 16 14 12 14 14 13 13 12 14 15 15 14 13 12 13 13 13 12 13 15 15 14 12 13 16 17 18 23 23 18 15 13 11 13 13
7 7 6 6 8 11 12 12 12 14 18 17 13 18 29 33 33 31 30 29 28 28 30 32 32 31 32 32 32 33 30 27 26 24 22 22 23 23 23 23 23 21 19 19 19 19 18 17 16 14 15 15 14 15 14 14 14 12 14 14 14 15 14 13 13 12 12 12 12 14 14 13 13 14 15 16 18 23 25 25 20 11 7 9 9
7 6 5 6 9 11 11 10 10 11 11 10 12 21 28 32 34 34 33 33 32 30 31 33 34 32 32 30 30 32 33 29 26 24 22 22 23 23 24 24 23 21 20 19 19 19 18 18 17 14 15 16 14 14 14 15 15 14 15 15 14 14 14 13 13 13 13 12 12 13 14 14 15 15 16 14 16 22 25 25 25 17 10 6 6
7 6 6 7 8 10 9 6 3 3 9 15 18 17 17 21 26 30 31 31 31 30 29 30 31 31 31 29 26 29 33 32 29 27 23 23 23 23 24 24 22 21 21 19 18 17 18 18 17 16 16 15 14 13 13 14 14 14 14 14 13 12 12 13 12 13 14 12 12 13 13 14 14 14 16 15 15 20 24 22 22 23 18 9 5
9 7 7 8 8 9 9 7 5 7 8 8 8 6 7 10 15 20 20 18 21 23 25 26 27 27 29 29 25 25 29 31 31 29 26 25 23 22 23 23 21 22 21 19 18 18 18 17 17 17 16 14 14 13 13 13 12 12 12 13 13 12 11 12 11 11 14 13 12 13 12 13 13 12 15 16 16 19 22 20 17 21 22 16 11
10 10 11 11 13 13 12 13 12 7 5 2 3 2 4 3 2 3 6 8 14 16 19 25 25 22 25 28 26 24 26 28 29 28 26 27 25 22 24 23 23 23 22 20 19 18 17 17 17 17 16 15 13 11 13 14 11 10 11 11 13 12 11 11 11 10 12 13 13 13 13 13 12 12 14 16 17 17 19 19 15 15 16 14 17
10 12 13 14 20 23 19 19 16 8 6 6 2 1 2 2 5 6 5 4 8 8 13 23 25 21 21 25 26 24 24 26 27 26 26 26 25 24 25 25 25 24 22 20 19 18 17 17 17 16 16 15 12 11 13 13 10 10 10 10 12 12 11 12 11 10 10 12 14 14 14 14 12 13 14 16 17 16 17 19 16 14 11 6 15
11 12 12 13 20 25 24 23 20 14 13 11 5 1 1 2 1 7 11 10 10 12 18 25 25 22 21 22 25 25 23 24 26 27 26 25 25 27 27 26 25 24 22 20 19 18 16 15 16 16 15 14 12 11 12 12 11 10 10 10 10 11 11 11 11 10 10 12 13 13 14 14 12 12 15 16 17 15 15 17 15 15 11 5 13
13 13 12 12 16 21 24 24 23 18 15 15 14 9 4 0 3 9 13 13 14 18 23 25 25 24 22 21 23 24 23 24 26 28 27 25 26 28 27 26 25 22 21 19 18 19 16 15 16 15 15 14 11 10 11 12 11 9 10 11 10 11 11 11 11 11 11 11 11 11 14 14 12 12 14 15 16 15 14 16 16 15 12 7 12
15 14 13 14 16 19 21 23 24 23 19 19 20 19 13 6 5 6 7 8 12 18 21 22 25 25 23 21 22 24 23 24 27 28 27 26 28 27 25 24 22 20 20 18 18 18 16 16 16 14 14 13 11 10 10 11 10 8 10 11 9 10 11 11 13 12 12 12 10 10 13 14 12 11 13 13 14 15 14 16 16 15 15 9 9
14 13 13 16 18 18 19 21 23 23 24 23 22 22 21 14 11 10 8 8 10 16 21 22 23 25 26 23 22 25 25 24 27 28 28 28 28 25 23 21 19 19 20 19 18 18 16 16 15 13 14 14 12 11 9 10 10 9 10 9 7 9 11 11 12 11 12 13 11 11 13 14 13 12 12 12 13 13 13 15 16 15 16 11 9
13 12 12 14 16 17 18 18 18 19 21 23 23 23 23 20 16 12 10 11 9 11 19 23 20 20 23 21 21 26 26 26 26 26 29 31 27 25 23 20 20 20 20 19 18 16 16 15 14 14 15 14 12 10 9 9 10 8 8 7 7 9 10 9 8 8 12 13 11 11 12 13 14 13 12 11 12 13 12 14 14 15 17 13 10
14 13 12 12 13 15 17 17 18 17 17 18 20 22 23 22 20 16 13 13 12 8 12 18 19 19 21 22 24 25 24 25 24 20 26 31 28 26 23 22 22 21 20 20 18 16 15 14 14 16 17 14 11 9 8 10 10 8 8 8 7 8 9 9 8 9 12 12 9 8 8 10 13 14 13 11 12 13 14 14 13 15 16 13 12
11 11 11 12 12 14 17 18 18 18 18 17 18 20 21 21 22 20 15 13 12 10 7 11 16 20 22 26 29 24 18 22 24 18 24 32 29 26 25 22 21 20 21 21 18 16 15 13 15 19 17 14 12 9 8 11 11 9 8 9 9 8 9 8 8 10 12 10 7 5 5 8 11 12 13 10 10 13 15 14 13 14 13 10 15
11 11 11 12 12 13 16 18 19 19 20 19 19 21 21 22 23 23 19 13 9 9 10 11 14 20 22 25 29 23 15 20 24 20 23 31 28 26 25 22 20 20 21 21 17 16 16 15 17 19 18 16 13 10 10 12 11 9 9 10 9 8 8 9 9 9 10 9 6 4 4 6 9 12 12 9 8 12 14 11 10 12 11 11 19
12 12 12 12 11 12 15 17 18 19 20 20 20 22 24 25 26 26 23 16 7 5 7 10 14 20 23 22 23 22 17 19 24 22 24 29 28 26 24 21 20 20 19 18 17 16 17 18 20 20 19 17 15 13 12 11 10 11 10 9 8 6 6 7 8 8 8 7 7 6 5 6 9 10 10 7 6 9 10 7 6 9 12 14 19
12 12 11 11 12 14 16 17 18 20 20 21 21 21 24 29 30 29 28 22 12 3 7 15 18 20 21 19 20 22 17 16 22 24 22 25 26 24 22 22 21 20 18 17 17 17 19 21 22 21 20 18 16 14 14 12 12 12 11 8 7 6 4 3 5 8 10 9 8 8 8 8 9 9 8 7 7 7 6 6 6 7 9 12 13
12 12 12 11 13 15 16 17 19 20 20 21 22 22 24 29 31 30 29 27 23 17 6 9 18 22 21 20 21 23 19 17 23 24 22 24 25 23 23 22 20 20 18 17 19 21 22 22 22 20 19 18 16 14 13 13 12 12 11 9 6 6 6 3 2 7 10 11 10 9 9 8 8 8 7 6 6 6 5 5 6 7 7 8 8
12 13 12 12 12 15 17 18 19 20 21 22 22 23 25 27 27 28 30 30 29 27 23 15 9 17 23 24 24 24 22 21 24 25 24 26 25 23 22 20 19 22 21 19 21 23 23 21 20 19 18 16 15 13 12 12 12 12 12 9 7 5 5 4 5 7 11 12 12 12 11 10 9 7 7 6 5 4 3 3 3 4 3 3 3
12 12 12 12 13 15 17 18 19 20 21 21 23 23 24 25 25 25 29 33 33 31 29 27 21 15 19 25 27 25 23 22 21 20 23 26 26 24 24 22 23 25 24 23 23 22 21 20 18 17 16 15 13 12 11 11 10 11 12 10 8 6 4 5 9 11 11 12 13 15 14 12 10 8 7 6 5 3 2 2 1 1 2 2 2
10 9 10 12 15 17 19 19 20 21 21 22 24 23 24 26 27 28 29 31 33 34 32 30 27 23 18 21 25 25 24 23 21 20 22 26 27 26 27 26 26 25 24 23 22 21 21 19 17 16 16 15 13 11 10 10 9 9 9 9 9 10 9 11 14 15 13 11 12 14 14 12 9 8 6 5 5 4 3 2 1 1 1 1 2
9 9 10 13 16 18 19 20 21 22 23 24 25 24 25 29 30 32 31 29 31 35 35 33 32 29 24 20 22 26 27 26 26 25 25 27 28 27 27 27 27 26 24 23 21 21 21 19 17 16 15 14 13 11 9 9 8 8 8 8 8 10 11 12 13 13 14 14 12 13 14 12 8 7 6 5 5 5 4 3 3 3 2 1 1
10 11 13 15 16 17 18 20 22 24 25 25 25 24 26 29 31 31 31 29 31 35 36 35 34 31 27 24 22 25 29 28 27 27 27 28 28 28 27 28 29 28 25 23 22 21 20 20 18 15 15 15 13 11 10 9 9 9 9 8 8 8 9 10 11 12 13 15 14 12 12 11 8 8 7 6 6 5 5 5 4 3 3 1 1
14 16 17 17 18 17 18 20 23 25 25 25 25 25 26 29 30 30 30 30 32 34 34 34 34 32 30 28 25 26 29 29 27 28 27 26 28 28 27 28 29 27 23 22 21 20 19 19 17 15 15 16 14 12 11 10 10 10 10 10 10 11 13 13 13 13 13 14 13 11 10 10 8 8 8 6 4 3 2 3 1 0 1 1 1
16 18 19 20 20 19 19 20 21 24 25 25 26 26 27 28 28 27 29 31 32 32 32 33 32 31 32 32 30 29 30 30 28 26 25 24 26 27 25 25 27 26 23 22 21 21 20 19 18 17 15 15 15 14 11 10 10 9 10 12 14 16 17 16 14 14 13 13 12 10 9 8 8 8 7 5 4 3 3 4 4 4 5 5 6
17 18 19 20 21 21 22 23 23 23 23 23 25 27 28 28 27 27 29 30 30 29 30 31 30 30 32 33 33 31 31 30 28 25 23 23 24 25 24 24 25 25 23 22 20 21 21 19 18 18 16 15 15 14 12 10 10 8 8 11 14 18 20 18 15 13 13 12 12 11 10 9 8 8 7 7 7 6 7 7 8 9 10 10 11
17 18 18 20 21 22 23 24 23 23 23 23 24 27 28 27 27 29 30 28 26 25 27 29 31 32 34 33 33 32 31 30 28 25 23 22 22 24 24 25 25 24 22 21 19 20 21 20 18 17 17 16 16 15 14 12 10 9 8 7 9 14 18 18 15 13 11 11 11 11 11 10 8 8 8 8 9 9 10 10 11 12 13 14 15
17 18 19 20 21 22 22 22 22 23 23 24 24 25 26 26 27 29 28 26 24 23 25 27 29 32 33 32 32 31 30 29 27 25 24 23 22 23 24 25 25 23 22 22 21 21 22 22 19 18 19 18 17 17 16 15 13 12 11 9 9 12 14 15 14 12 10 9 10 10 10 9 9 10 10 11 12 11 11 11 11 11 11 12 14
19 19 19 19 19 20 20 21 22 23 23 24 25 25 24 24 27 27 25 24 24 24 25 26 28 29 30 30 29 28 27 26 25 24 24 23 23 23 23 24 24 23 23 23 21 20 20 21 20 19 19 18 18 17 17 17 16 15 14 13 13 13 12 12 12 10 8 8 10 10 10 10 11 11 11 11 11 10 9 9 9 9 10 10 11
19 19 19 17 17 18 18 19 20 21 22 23 24 24 24 24 25 24 23 24 25 26 27 28 28 29 29 28 28 28 27 26 24 22 21 20 18 17 18 19 19 19 20 20 18 18 18 20 21 21 20 18 18 17 17 17 17 16 15 14 14 13 11 10 10 9 7 6 8 9 9 9 9 10 10 11 11 12 13 13 13 13 13 13 12
17 19 19 18 17 17 17 18 18 19 20 21 22 22 22 23 22 21 22 23 22 24 28 29 28 28 28 26 25 25 25 25 24 23 21 21 19 16 15 15 14 13 13 15 16 16 16 19 21 22 20 18 16 16 16 17 17 16 14 12 12 12 10 9 10 10 9 8 8 8 9 10 11 12 12 12 13 14 15 15 15 15 15 16 16
16 17 18 18 18 17 17 19 19 18 17 18 19 19 18 19 19 20 22 22 21 21 24 27 28 28 27 25 23 22 22 22 21 21 21 21 20 19 20 19 17 15 15 15 16 15 15 17 20 20 18 16 14 13 14 15 15 14 11 10 9 9 9 9 10 10 10 9 9 9 11 12 13 13 13 13 14 15 15 15 15 15 16 17 18
15 15 15 16 17 16 16 17 18 19 17 16 17 18 16 15 15 16 18 19 19 21 22 22 23 23 24 24 24 23 21 20 20 20 19 18 17 17 19 20 19 19 21 21 22 22 20 19 18 17 16 14 12 11 12 13 14 13 12 10 8 7 8 10 10 10 11 11 11 12 12 13 14 14 14 14 15 15 15 15 15 15 15 16 17
11 12 13 14 15 15 15 16 16 16 16 15 14 14 15 14 12 13 15 15 15 15 16 17 17 17 18 18 20 20 19 18 18 19 18 17 15 15 16 19 19 20 20 20 21 23 23 21 18 15 13 12 12 11 12 13 14 13 12 10 9 9 10 11 12 13 14 15 15 14 13 14 15 16 16 16 15 15 16 16 17 16 16 17 17
7 9 10 12 13 14 15 16 16 14 13 13 11 11 13 13 12 10 11 13 14 12 11 11 12 12 12 12 12 15 17 17 17 17 17 15 15 14 15 17 17 17 16 15 15 17 19 18 15 13 11 11 13 13 14 15 14 13 12 12 11 12 13 13 14 15 16 17 16 16 17 18 18 17 17 16 16 16 16 17 17 16 16 16 16
5 6 7 9 10 11 13 15 16 15 14 13 13 11 10 12 14 11 8 9 13 14 12 10 10 10 11 10 8 9 12 14 16 17 17 16 15 14 15 16 16 16 15 12 11 13 14 12 11 11 11 12 14 15 15 15 15 15 15 14 13 14 14 15 16 16 16 17 18 19 20 20 20 19 19 18 18 17 16 16 17 17 17 17 18
1 2 4 4 5 7 9 11 13 15 16 16 17 16 12 12 15 14 10 9 11 11 11 10 10 10 10 10 8 6 6 9 13 15 16 16 15 16 17 17 16 16 16 14 13 13 13 11 10 11 12 13 14 15 15 16 17 17 17 16 16 16 16 16 17 17 17 18 19 20 20 21 21 21 21 20 20 19 18 18 17 17 18 18 19
2 1 1 1 1 2 5 7 9 12 13 14 16 16 13 14 15 15 14 12 11 10 9 9 9 10 9 9 9 8 4 6 9 12 13 15 15 15 16 16 16 16 16 16 16 15 14 12 11 11 12 13 13 14 15 16 16 16 16 16 15 15 16 17 17 17 18 18 19 20 21 21 20 21 21 21 20 20 20 19 18 18 18 19 20
Wind_Direction
178 171 163 155 150 150 150 148 145 147 155 159 162 171 177 181 184 188 190 187 183 170 161 167 174 171 166 163 164 167 172 172 174 183 186 186 186 186 187 188 188 187 188 187 179 178 181 174 173 183 184 176 176 182 182 173 164 157 151 151 149 144 143 145 145 134 122 119 119 117 116 115 126 145 155 157 155 157 164 170 170 164 164 166 167
161 164 160 152 143 140 142 144 144 145 156 166 169 174 180 185 185 186 187 184 178 172 170 175 182 178 169 161 158 160 173 178 175 180 182 184 188 188 188 188 187 185 187 187 177 173 180 179 182 184 178 176 178 178 179 174 169 165 154 151 155 151 151 153 151 140 128 130 126 115 108 102 107 128 140 147 152 154 157 164 167 163 164 168 169
160 161 152 143 134 133 138 145 154 159 168 175 175 175 180 184 184 183 182 178 177 176 173 178 178 176 173 162 159 160 172 181 179 178 178 181 186 187 188 186 183 183 188 193 181 172 189 191 184 182 177 180 183 177 179 179 175 175 165 156 155 151 154 162 163 157 144 137 129 122 131 112 94 108 128 139 151 156 156 161 166 165 166 168 164
165 163 151 137 130 135 144 153 163 169 173 175 175 174 177 179 180 184 183 179 178 175 176 178 168 170 174 163 164 166 165 171 174 177 180 183 185 184 187 185 182 182 187 197 191 181 194 196 186 184 182 185 189 180 178 180 176 176 170 164 163 154 152 163 173 174 158 147 135 122 146 140 122 123 118 127 151 158 158 160 163 163 162 162 157
166 162 153 142 138 147 156 161 168 174 173 172 171 170 173 177 181 189 185 178 174 173 183 179 158 161 170 159 160 172 163 159 161 167 176 185 187 183 185 186 183 184 188 195 195 188 192 194 190 191 189 187 190 184 179 180 180 179 171 169 175 167 159 160 164 170 168 164 158 143 142 151 165 151 132 118 149 155 158 162 160 159 159 157 152
166 160 156 150 148 153 158 166 174 175 170 169 171 172 174 176 179 184 181 177 173 169 179 176 158 158 164 155 156 166 162 159 160 165 173 184 190 185 185 187 184 185 190 194 192 189 192 196 193 194 193 190 192 191 186 182 180 181 177 174 178 178 173 165 159 165 171 176 175 169 203 217 163 153 147 111 140 153 157 158 156 155 156 152 146
147 135 128 128 145 155 165 178 179 171 164 168 172 173 174 173 172 174 173 175 176 170 169 168 165 169 165 156 163 173 170 169 173 176 178 185 191 187 187 188 185 184 189 193 191 190 195 197 190 191 195 195 195 191 187 186 181 181 184 183 180 178 180 174 168 171 173 178 177 168 228 197 162 154 159 149 137 159 159 156 160 158 154 150 146
120 108 97 105 154 177 189 191 179 165 166 169 168 169 171 170 166 166 166 171 177 174 169 169 172 176 172 164 169 190 187 175 175 180 178 181 186 186 185 184 185 185 186 190 193 192 194 193 188 191 198 196 191 184 183 186 184 183 184 185 183 178 181 180 173 173 176 175 169 150 150 171 166 162 162 153 134 138 151 152 166 163 159 158 154
111 118 123 140 170 191 206 207 179 168 170 167 164 164 167 167 163 161 162 167 176 180 177 178 180 179 176 169 169 191 196 179 176 181 178 178 182 183 183 181 182 186 188 190 190 191 190 189 187 190 194 188 186 185 184 186 188 189 185 180 182 177 179 183 175 175 181 175 167 157 152 162 172 174 160 151 141 148 150 144 163 165 169 167 159
110 133 147 163 175 188 202 201 181 174 168 162 165 161 160 164 162 160 163 170 180 187 185 183 186 184 177 173 173 183 189 180 180 182 179 180 181 182 183 182 182 184 188 187 185 186 186 186 187 187 186 183 183 183 182 185 187 186 180 175 177 176 176 183 181 181 186 181 172 168 164 163 165 166 161 156 149 148 142 149 164 166 167 171 166
114 137 147 152 158 174 187 173 158 164 151 141 155 154 153 158 164 167 171 177 185 191 192 189 189 186 178 176 178 180 181 179 178 178 180 183 183 182 181 180 180 181 181 179 179 179 176 176 180 179 178 180 183 180 178 182 180 176 174 172 175 177 176 180 184 181 181 182 182 181 176 171 168 172 170 161 154 149 139 147 165 164 161 170 174
71 65 51 53 70 81 83 84 113 143 127 97 103 113 117 141 165 180 181 181 188 193 196 195 191 186 182 180 180 181 182 181 179 178 182 185 184 182 180 178 178 176 174 173 173 173 170 170 174 176 175 178 182 179 178 179 176 173 173 172 174 178 177 175 177 178 178 181 190 192 185 182 183 183 175 167 165 161 149 148 161 156 156 172 172
44 35 30 28 37 51 59 80 113 121 109 97 104 114 122 147 170 187 190 187 192 196 197 196 192 187 186 184 182 181 182 184 183 180 182 184 182 180 179 176 172 169 169 170 170 170 170 170 172 174 174 174 171 170 174 179 178 175 172 173 176 178 179 176 172 176 181 182 188 188 184 188 193 189 181 175 172 161 150 148 161 159 161 172 173
37 36 27 18 16 21 27 40 68 84 92 98 110 131 148 162 173 187 196 194 193 195 196 197 195 192 191 189 185 180 181 185 184 181 181 182 181 180 177 173 171 171 172 172 171 169 169 169 169 170 171 170 165 165 170 174 175 173 170 173 178 180 180 177 173 176 182 185 186 182 183 189 188 181 178 174 171 165 157 155 160 161 164 166 173
33 36 29 17 6 8 16 21 35 63 81 88 108 149 161 167 176 187 196 197 194 195 196 197 197 195 195 194 189 182 180 183 183 182 182 181 180 179 175 172 172 172 172 172 173 172 169 168 168 169 170 169 167 170 172 171 169 167 168 172 176 179 179 174 174 178 181 186 188 186 188 189 181 175 178 179 177 174 168 163 162 157 158 164 170
25 29 23 17 7 4 8 15 40 80 106 132 171 183 176 174 181 187 195 199 199 198 197 199 200 197 198 198 193 184 179 179 180 180 183 184 182 179 175 173 170 168 168 167 167 168 167 166 168 167 165 166 169 173 174 172 172 169 168 172 174 178 181 178 178 183 183 186 189 187 187 186 183 179 181 184 181 177 172 170 169 166 159 159 165
20 26 15 7 8 360 355 6 42 149 183 187 193 199 188 181 185 188 195 201 202 201 199 201 201 199 199 199 199 191 182 179 180 179 181 182 181 180 177 173 170 170 172 170 166 165 164 164 166 164 161 164 168 167 167 167 170 168 165 169 173 176 180 180 184 187 184 187 190 187 185 184 184 184 183 184 184 178 174 175 179 179 173 160 150
14 27 25 9 4 352 342 343 317 255 226 188 180 204 202 200 203 196 195 203 208 208 206 204 203 201 199 199 203 198 187 183 181 178 179 179 177 177 176 171 170 171 172 172 168 164 165 165 163 159 157 159 161 164 171 166 161 163 163 166 170 172 177 180 186 189 184 190 196 190 187 188 186 187 186 186 187 184 182 183 186 186 182 172 157
18 24 24 10 8 2 345 337 327 287 268 300 86 122 192 228 322 153 173 222 229 221 212 211 211 205 199 200 204 201 191 186 182 178 180 178 175 175 172 168 168 169 166 165 164 164 168 170 166 160 156 159 161 164 169 163 155 160 165 167 171 174 176 176 184 192 189 195 201 193 190 192 194 193 188 187 189 190 192 193 192 188 185 180 171
28 28 24 12 10 8 1 354 354 4 360 350 27 107 222 307 24 84 126 212 228 220 216 219 221 215 203 201 202 199 195 190 185 183 179 176 177 175 169 165 163 162 160 160 162 164 165 166 164 160 157 158 159 154 153 154 153 156 159 162 169 175 179 178 183 195 193 195 200 197 193 195 200 200 193 190 192 194 199 199 200 195 184 182 182
33 35 31 18 10 6 6 8 11 17 18 17 29 55 237 291 236 186 194 197 182 191 210 216 221 221 214 206 201 197 194 191 189 186 179 174 175 170 162 161 159 158 160 161 162 163 161 159 158 157 155 153 155 154 150 151 153 151 151 154 158 167 176 176 177 185 187 190 197 197 194 196 202 201 195 196 198 196 198 200 205 202 187 172 180
32 33 35 24 12 5 4 10 16 16 16 16 12 7 9 330 225 223 224 213 187 192 206 209 211 216 217 212 205 196 192 192 188 183 178 174 168 161 156 156 156 157 160 160 163 165 162 160 157 154 153 150 150 151 147 149 154 155 159 160 160 165 171 173 172 175 181 187 193 192 192 197 202 199 194 197 199 192 190 197 204 206 198 182 176
30 27 28 21 13 8 4 6 9 10 11 10 6 4 2 340 295 289 268 242 212 201 204 205 206 209 211 211 207 200 195 192 185 180 178 171 161 156 155 155 155 156 159 161 163 164 161 159 158 156 154 150 146 147 148 153 153 152 159 164 170 174 176 180 177 176 180 183 186 184 187 193 196 196 195 197 198 191 185 190 195 199 202 197 186
32 26 22 16 12 9 9 8 5 3 3 4 5 6 5 356 336 325 309 289 248 213 204 205 205 205 206 208 207 202 197 192 188 182 175 166 156 154 156 156 153 155 160 163 162 161 161 160 161 161 155 147 145 150 153 153 149 147 155 162 170 174 177 180 180 183 186 182 177 179 185 191 192 194 198 200 199 192 186 188 192 196 201 204 196
30 26 20 16 12 9 9 8 5 2 360 359 1 6 8 6 357 341 318 311 293 229 207 205 203 194 196 206 208 203 199 194 191 182 169 161 155 154 155 154 153 158 164 163 160 162 164 163 166 162 152 143 142 151 153 146 146 151 156 153 148 152 159 160 158 171 180 176 172 178 186 192 193 195 198 201 204 200 193 191 195 199 202 210 208
22 21 18 16 13 9 8 7 5 4 1 358 360 4 7 6 4 357 336 322 313 275 211 201 201 189 188 200 203 204 205 194 187 179 164 157 154 153 152 153 158 163 164 159 159 162 160 158 160 154 145 139 141 154 159 148 146 153 159 161 156 151 151 145 132 140 158 166 168 173 182 191 197 197 193 196 207 208 203 200 205 207 207 219 221
21 19 16 15 13 10 9 8 5 3 1 0 0 2 4 4 4 1 346 329 317 301 262 222 212 195 190 196 196 200 204 188 186 184 163 154 152 151 152 155 162 165 159 156 157 158 155 155 154 148 144 144 147 149 146 142 146 148 149 153 154 150 147 142 136 139 146 149 147 151 173 192 197 190 182 189 209 208 204 206 208 203 204 220 213
24 21 17 14 14 11 10 8 5 4 3 2 3 6 7 8 9 7 357 340 317 293 278 256 223 201 197 198 195 196 190 181 189 188 161 152 151 152 154 157 160 157 153 154 155 154 154 154 149 145 145 147 147 137 126 135 148 145 134 139 141 133 127 126 127 133 135 131 124 123 148 178 186 183 180 187 204 203 203 209 210 206 216 214 193
25 22 19 16 15 14 13 10 7 7 7 6 7 9 12 16 16 15 11 1 331 274 252 240 218 205 203 200 197 197 188 177 181 172 153 149 149 152 157 157 153 152 151 154 154 150 147 143 138 137 138 140 138 127 119 123 137 138 131 133 138 129 124 130 134 134 133 130 126 115 117 148 171 178 179 175 172 186 196 196 198 212 220 205 182
25 22 19 17 17 17 16 16 13 11 11 11 10 9 14 21 22 20 20 21 20 21 210 209 204 203 203 196 191 192 185 172 168 161 152 151 149 148 152 151 150 153 154 154 152 145 139 136 132 129 129 130 126 120 116 113 119 130 132 130 128 118 118 159 163 145 139 135 128 114 111 137 162 166 162 157 152 163 167 147 147 167 176 174 163
26 24 21 20 20 18 18 20 19 16 16 14 13 13 16 22 26 24 24 30 38 42 48 190 189 189 190 185 182 183 177 163 159 158 158 155 147 141 141 144 145 145 146 147 144 138 134 131 129 126 123 123 122 119 118 115 112 122 131 133 124 108 105 107 141 149 148 140 130 121 115 126 152 164 163 163 164 165 152 129 134 146 144 149 148
29 27 24 22 20 18 18 21 21 20 20 18 17 20 21 21 24 27 31 37 42 41 37 46 112 154 159 161 166 168 165 159 155 156 157 150 142 136 137 138 135 134 138 141 136 131 128 126 125 124 120 119 121 120 122 123 120 119 120 121 124 126 123 94 83 130 154 148 133 123 116 116 129 146 156 164 173 179 177 153 132 140 144 147 162
33 32 29 26 22 20 20 21 21 21 22 23 24 26 27 25 24 31 39 42 42 40 38 42 56 87 122 139 148 150 153 155 152 150 147 140 135 133 133 134 131 131 133 133 129 126 124 122 122 121 118 118 121 123 128 134 135 126 115 106 103 110 130 106 91 106 133 144 136 127 122 122 125 131 136 147 160 161 175 201 190 159 192 223 246
22 29 35 31 27 26 25 25 25 26 28 30 31 32 34 34 33 36 42 45 45 41 37 40 47 53 74 113 132 136 138 142 141 137 132 129 127 126 126 130 131 129 127 125 124 123 119 117 119 119 118 116 112 114 125 138 149 144 126 109 91 85 99 106 99 97 105 120 133 138 137 135 133 135 134 141 159 154 127 111 84 52 18 320 299
12 20 31 35 34 31 29 28 28 31 34 35 35 35 38 41 39 39 41 44 49 48 39 36 43 47 51 76 108 121 123 125 129 130 125 122 123 123 124 126 125 123 122 121 119 117 114 113 115 119 119 110 101 101 110 122 136 143 138 126 101 85 89 97 96 95 96 105 122 140 143 137 129 127 123 122 145 159 150 120 99 80 51 359 316
20 19 23 32 37 37 36 35 35 36 37 37 37 39 43 45 43 42 42 42 49 54 48 39 40 43 46 55 76 99 109 111 115 118 116 116 120 122 123 124 121 117 118 117 113 111 109 108 109 113 113 104 94 93 98 102 110 121 128 126 110 93 88 90 94 96 99 105 114 123 126 122 113 103 96 95 111 136 150 143 130 109 80 48 265
33 32 32 35 38 38 37 40 41 40 39 39 40 43 46 47 46 44 44 44 47 51 51 47 42 40 46 52 59 75 92 100 102 103 103 107 114 117 118 121 120 116 115 114 111 107 106 104 102 102 101 97 90 85 90 99 103 108 113 110 101 96 94 93 94 98 105 109 107 104 104 104 98 88 78 75 84 103 125 124 121 98 33 332 260
41 40 41 41 42 40 37 40 43 42 40 40 43 46 47 47 45 44 46 47 47 47 50 51 48 45 49 53 55 61 76 86 91 92 95 99 106 110 112 113 115 114 111 112 111 107 103 99 96 92 89 89 86 80 81 95 100 101 101 97 94 95 94 89 88 92 99 104 101 95 90 84 78 71 61 51 45 30 18 17 1 339 328 316 306
48 46 47 46 46 46 44 43 44 42 40 41 44 47 48 46 43 43 45 46 46 47 50 52 52 52 55 57 57 57 64 73 78 83 90 96 100 106 110 109 109 109 108 109 109 106 99 92 87 84 79 78 79 75 73 84 92 94 95 93 93 93 89 84 84 88 91 93 89 81 75 69 62 55 46 35 28 21 12 7 357 346 339 330 325
48 49 50 50 48 47 44 43 42 43 43 43 44 47 48 46 44 44 43 42 43 48 53 56 56 56 57 58 59 59 60 66 71 76 84 90 95 101 105 104 103 104 104 102 100 97 92 85 78 76 74 71 72 70 68 70 76 77 79 85 88 85 83 84 85 85 87 86 78 67 60 52 42 33 25 17 13 8 1 354 346 338 334 328 323
45 48 50 51 51 50 49 45 43 43 44 45 46 47 46 45 46 44 39 39 45 52 56 57 57 58 58 58 59 59 59 62 67 71 75 79 84 87 91 94 97 98 97 94 89 86 84 80 76 77 75 70 67 68 65 62 64 65 62 65 71 72 79 90 93 89 84 72 56 44 35 24 13 7 2 359 356 352 349 346 340 334 331 326 324
43 45 47 49 50 50 50 49 48 48 47 47 48 48 45 44 45 43 39 42 48 53 57 57 57 58 60 61 60 59 60 62 64 66 68 69 70 72 76 84 90 91 91 91 89 89 90 90 88 84 80 73 68 67 65 60 58 59 58 60 65 70 80 95 99 93 80 52 35 27 17 6 0 1 3 4 6 11 17 17 11 4 355 347 344
39 38 39 44 46 45 46 46 49 51 50 49 50 50 47 44 43 42 45 50 52 53 56 58 59 59 61 62 61 60 62 64 66 68 69 69 69 70 74 80 87 92 96 101 106 109 110 108 103 95 87 80 74 70 68 61 53 51 54 58 65 71 78 88 91 84 67 37 25 23 21 20 23 32 41 44 45 46 43 37 30 22 16 11 5
36 37 37 39 42 43 43 43 43 46 48 49 51 52 53 51 46 43 47 52 54 55 55 55 58 61 62 61 59 57 58 61 64 66 67 69 73 77 78 80 88 96 103 114 124 130 129 122 112 101 91 84 77 72 67 60 53 50 54 63 73 77 77 80 80 75 63 44 32 33 46 59 63 63 62 57 52 49 45 42 39 34 31 28 22
36 38 38 39 40 40 42 43 41 41 45 49 51 52 57 59 54 48 49 51 52 53 54 52 54 58 61 62 60 56 54 57 59 58 56 58 64 71 74 79 83 82 82 90 99 109 125 129 118 105 94 86 80 71 60 51 48 48 51 60 71 75 71 67 65 63 55 45 44 59 73 74 68 63 61 59 56 54 51 47 41 35 32 31 29
39 39 39 39 39 36 36 39 40 41 44 49 49 49 54 61 61 57 54 51 52 55 56 56 57 58 57 58 58 54 51 52 54 54 50 49 53 62 69 76 79 77 77 80 81 84 99 115 115 105 96 86 76 64 51 43 41 40 39 46 57 61 57 54 57 62 61 59 68 77 75 68 65 63 61 58 55 49 43 37 31 28 28 28 26
38 37 36 35 32 28 24 25 30 36 42 46 47 45 44 46 52 58 59 56 57 60 59 60 64 64 62 61 61 59 58 55 52 52 51 48 49 56 63 67 68 69 72 76 78 79 87 99 103 97 88 78 68 60 53 47 42 40 40 46 54 56 56 60 65 70 69 67 69 69 65 66 74 73 65 59 54 48 42 39 37 35 35 33 30
39 34 33 29 22 17 15 16 19 25 32 37 41 43 44 40 36 44 58 60 57 57 56 56 60 63 65 68 69 69 72 74 71 68 66 62 58 57 61 62 61 61 65 72 76 77 81 90 95 90 80 70 61 55 51 48 45 46 49 54 58 60 62 65 67 67 65 64 64 66 67 70 72 69 63 58 53 48 44 42 38 33 31 30 27
37 33 35 30 17 11 10 13 17 21 22 24 26 31 46 50 42 37 45 56 56 59 59 55 55 61 66 71 78 81 82 84 85 84 82 79 76 73 74 74 70 66 65 68 72 72 71 77 85 83 76 71 65 58 55 57 60 61 60 62 65 66 65 64 63 62 63 64 64 63 62 59 57 56 56 53 49 45 42 38 33 28 23 18 15
52 37 45 38 19 14 15 14 17 19 19 20 24 28 37 44 41 42 48 49 49 53 51 47 50 55 58 61 66 77 92 94 92 92 92 93 92 89 87 87 85 82 79 77 76 72 64 61 70 75 74 73 70 68 70 76 76 71 67 66 68 70 69 65 62 62 61 59 57 56 55 55 57 57 56 53 49 45 40 34 29 24 19 14 9
172 178 138 75 25 17 28 30 27 21 16 17 22 27 28 28 33 40 44 40 41 46 41 33 30 32 35 42 46 47 80 122 114 104 100 101 101 99 94 91 91 91 90 86 82 80 74 66 66 72 75 73 73 78 85 86 81 73 69 67 68 70 68 63 62 66 64 58 55 57 58 57 56 55 53 49 45 41 38 33 27 21 17 13 8